User: anonymous   Login
Location: G�ppingen
(0.0000°N, 0.0000°E)
Time: 19:36:21
(UTC+00:00)
Language:

Tiangong 2 - Orbit

View from above orbital plane
View from above orbital plane
View from above satellite
View from above satellite

Ground track
Ground track

The orbit data is extracted from the following two-line orbital elements,

1 41765U 16057A   19169.45999256  .00002838  00000-0  36289-4 0  9990
2 41765  42.7842 319.1965 0009041 276.3116 135.5474 15.61750697157241
Epoch (UTC): 18 June 2019 11:02:23
Eccentricity: 0.0009041
inclination: 42.7842°
perigee height: 376 km
apogee height: 389 km
right ascension of ascending node: 319.1965°
argument of perigee: 276.3116°
revolutions per day: 15.61750697
mean anomaly at epoch: 135.5474°
orbit number at epoch: 15724

The dashed part of the orbit path shows where the satellite is in the earth's shadow,  

DLR